Location: Poughquag
(41.6090°N, 73.6820°W)
Time: 11:16:29
(UTC-04:00)

Vanguard 1 Rocket - Pass Details

Date: 04 June 2020
Orbit: 653 x 4224 km, 34.3° (Epoch: 06 July)

Event Time Altitude Azimuth Distance (km) Brightness Sun altitude
Rises 20:45:29 0° 198° (SSW) 8,227 12.1 -4.0°
Reaches altitude 10° 20:52:42 10° 188° (S) 7,383 11.7 -5.1°
Maximum altitude 21:11:51 27° 141° (SE) 5,702 10.9 -7.9°
Drops below altitude 10° 21:27:13 10° 92° (E) 6,020 11.1 -10.1°
Sets 21:32:04 0° 82° (E) 6,556 11.4 -10.7°
